Weather in Ji Parana

Brazil     10°52′42″S   61°56′29″W
temp.,
°C
wind,
m/s
gust,
m/s
humid.,
%
clouds,
%
prec.,
mm/h
press.,
hPa
HPBL,
m
21 april, wed
wed2123:00+22nne009797 1.9 101311
02:00+21n0198100 1.9 101111
05:00+21nw009851 0.0 101111
08:00+23n119556 0.0 1013171
11:00+28nw117540 0.1 1012890
14:00+29nw127523 1.4 1009934
17:00+27n11896 0.8 100827
20:00+23n229652 0.9 101125
22 april, thu
thu2223:00+22nne11975 0.0 101218
02:00+22n1298100 0.0 101046
05:00+21n119868 0.0 101134
08:00+23n239530 0.0 1013214
11:00+28nnw337420 0.1 1013911
14:00+28nnw127770 1.4 1009872
17:00+27nnw11915 1.3 100832
20:00+23n11955 1.8 101011
23 april, fri
fri2323:00+22n1297100 0.0 101229
02:00+22n129824 0.0 101134
05:00+21nne119880 0.0 101112
08:00+23nne129692 0.0 1013173
11:00+27n2389100 1.8 1013337
14:00+29nnw2370100 2.9 10091138
17:00+27nne128691 0.3 100847
20:00+23n229597 0.6 101029
24 april, sat
sat2423:00+23nne229799 0.1 101138
02:00+22n1298100 0.1 100933
05:00+21n119898 0.0 101033
08:00+24nne239334 0.0 1012211
11:00+28nnw227947 0.3 1012901
14:00+29n227334 1.3 10091078
17:00+28nnw1187100 0.4 100714
20:00+24nw1196100 5.3 101011
25 april, sun
sun2523:00+23nnw1196100 1.4 101111
02:00+23nnw1197100 1.6 100911
05:00+22ne119866 0.3 101011
08:00+24s1297100 2.9 1012128
11:00+26s358983 4.9 1013530
14:00+23s4997100 9.1 1010532
17:00+22s31097100 1.1 1011558
20:00+21se31098100 2.9 1012544